Find Starlink 31913

NORAD ID: 59667 Int'l Des: 2024-084 Owner: SPXS Country: US Constellation: starlink operational
LEOCIRCULAR

現在のビュー

3D地球を読み込み中...

About Starlink 31913

Starlink 31913 (NORAD 59667) is a starlink constellation satellite (v2 mini) launched May 6, 2024 by SPXS of US. It operates in LEO, CIRCULAR orbit with a mass of 730.00 kg.

Starlink 31913について

説明を読み込み中...

次回通過

Passes for default location (London). Set your location on the main map for personalized predictions.

高度履歴

Loading altitude history...

軌道要素

1 59667U 24084P 26174.93093733 .00001637 00000-0 68995-4 0 9996
2 59667 43.0036 158.1462 0001276 293.4473 66.6245 15.27579832120669
Epoch: Jun 23, 2026 • Age: 6 hours

現在のステータス

高度 489.8 km
速度 7.62 km/s
衛星直下点 -27.40°S, 37.76°E
打ち上げ日 May 6, 2024
運用期間 2.1 years
タイプ internet

技術仕様

分類 Payload
質量 730.00 kg
乾燥質量 700.00 kg
総質量 730.00 kg
長さ 0.30 m
直径 4.10 m
スパン 29.00 m
形状 Box + pan
製造者 SPXS
バスタイプ Starlink V2M
フェーズステータス In Orbit
所有者/国 SPXS/US

Most Searched